www.pogodaiklimat.ru

Погода и климат >> Архив погоды >> Корея >> Сеул


АРХИВ ПОГОДЫ в Сеуле

Время (UTC), дата Ветер
(напр.,м/с)
 
Видим.   Явления Облачность Т
(С)
Тd
(С)
f
(%)
Тe
(С)
Тes
(С)
Комфортность P
(гПа)
Po
(гПа)
Тmin
(С)
Tmax
(С)
R
(мм)
R24
(мм)
S
(см)
21 15.08 штиль 0 20 км 10/6 1500 м
[Sc As op]
+23.1 +19.8 82 +30 +30 очень
душно
993.1 983.5
00 16.08 В 1 20 км {дождь} 9/9 300 м
[Sc]
+24.6 +20.7 79 +31 +32 очень
душно
993.8 984.3 +23.0 0.1
03 16.08 19 км {дождь} н/о +28.0 +22.4 72 +37 +39 очень
душно
994.0 984.5
06 16.08 Ю 5 16 км {дождь} 8/8 600 м
[Sc]
+29.0 +21.4 64 +37 +38 очень
душно
994.5 985.1
09 16.08 З 4 19 км 1/1 1000 м
[Sc]
+28.6 +20.3 61 +35 +36 очень
душно
995.8 986.3
12 16.08 З 5 20 км ясно +25.9 +19.5 68 +31 +31 очень
душно
998.2 988.6 +29.5 0.0
15 16.08 12 км н/о +25.1 +20.7 77 +31 +31 очень
душно
999.7 990.0
18 16.08 ЮЗ 2 11 км 4/4 1000 м
[Sc]
+24.8 +21.5 82 +32 +32 очень
душно
999.8 990.1
21 16.08 ЮЗ 3 9000 м дымка 8/3 300 м
[Sc Ac trans]
+24.4 +21.1 82 +31 +31 очень
душно
1000.2 990.6
00 17.08 З 4 13 км 9/9 600 м
[Sc]
+25.5 +20.0 72 +31 +32 очень
душно
1000.9 991.3 +24.2 0.0
03 17.08 З 3 13 км в посл. час дождь 9// 600 м
[Cu Sc]
+27.1 +21.6 72 +35 +43 очень
душно
1000.5 990.9
06 17.08 З 4 14 км 8/8 600 м
[Cu Sc]
+28.6 +20.0 60 +35 +36 очень
душно
999.8 990.3
09 17.08 З 3 20 км 1/1 1000 м
[Sc]
+28.4 +16.3 48 +32 +33 душно 1000.3 990.8
12 17.08 З 5 20 км 1/1 600 м
[Sc]
+25.0 +18.4 67 +30 +30 душно 1002.8 993.1 +28.8 0.0
15 17.08 З 2 19 км 1/1 1000 м
[Sc]
+23.4 +18.2 73 +29 +29 душно 1004.2 994.5
18 17.08 З 1 18 км 1/1 600 м
[Sc]
+22.8 +19.3 81 +29 +29 очень
душно
1004.5 994.8
21 17.08 15 км н/о +22.6 +19.3 82 +29 +29 очень
душно
1005.5 995.7
00 18.08 Ю 4 19 км 6/6 1000 м
[Sc]
+24.4 +19.0 72 +29 +31 душно 1006.8 997.1 +22.6 0.0
03 18.08 З 2 19 км 8/6 1000 м
[Cu med, cong Ci fib]
+27.1 +17.2 55 +31 +38 душно 1007.0 997.4
06 18.08 СЗ 2 20 км 5/3 1500 м
[Sc Ci fib]
+30.1 +15.0 40 +32 +41 жарко 1006.1 996.6
09 18.08 З 3 20 км 1/1 1500 м
[Sc]
+29.0 +17.8 51 +33 +34 очень
душно
1005.8 996.3
12 18.08 З 3 20 км 3/1 1500 м
[Sc Ci fib]
+25.2 +20.0 73 +31 +31 очень
душно
1007.9 998.2 +30.7
15 18.08 С 1 20 км 4/0
[Ci fib]
+23.6 +19.5 78 +29 +29 душно 1008.4 998.7
18 18.08 С 1 20 км 3/0
[Ci fib]
+22.3 +18.8 81 +28 +28 душно 1009.1 999.3
21 18.08 СВ 1 19 км 5/0
[Ci fib]
+21.2 +18.1 82 +25 +25 комфорт 1009.9 1000.0
00 19.08 В 3 20 км 8/0
[Ci fib]
+24.8 +17.5 64 +29 +34 душно 1010.3 1000.5 +21.2
03 19.08 СВ 1 20 км 8/4 1500 м
[Sc Ci fib]
+28.8 +17.6 51 +33 +44 очень
душно
1009.8 1000.2
06 19.08 С 1 20 км 8/5 1000 м
[Sc Ci fib]
+30.6 +15.8 41 +33 +40 душно 1008.6 999.0
09 19.08 20 км 4/4 1500 м
[Sc Ci fib]
+30.4 +16.7 44 1008.3 998.7
12 19.08 З 1 20 км ясно +27.0 +18.5 60 +32 +32 очень
душно
1009.5 999.8 +31.3
15 19.08 20 км н/о +25.0 +16.9 61 +29 +29 душно 1010.2 1000.4
18 19.08 В 1 20 км ясно +24.2 +18.1 69 +29 +29 душно 1010.4 1000.7
21 19.08 В 1 19 км ясно +23.2 +17.8 72 +29 +29 душно 1010.7 1000.9
00 20.08 В 1 18 км ясно +26.5 +17.8 59 +31 +40 душно 1010.6 1000.9 +23.2
03 20.08 В 2 16 км 3/3 1000 м
[Sc]
+30.9 +18.9 49 +36 +48 очень
душно
1010.2 1000.6
06 20.08 ЮВ 2 17 км 6/6 1000 м
[Sc]
+32.7 +19.2 45 +38 +42 очень
душно
1008.5 999.0
09 20.08 ЮВ 1 15 км 5/3 1500 м
[Sc Ac trans Ci fib]
+31.3 +18.2 46 +36 +37 очень
душно
1007.9 998.4
12 20.08 ЮВ 3 20 км 6/0
[Ci fib]
+28.9 +18.6 54 +34 +34 очень
душно
1008.7 999.1 +32.8
15 20.08 ЮВ 3 20 км 3/0
[Ac trans]
+27.5 +17.9 56 +32 +32 очень
душно
1008.8 999.2
18 20.08 В 1 20 км 5/0
[Ac trans]
+25.7 +16.8 58 +29 +29 душно 1008.5 998.8
21 20.08 СВ 1 18 км 8/0
[Ac trans]
+24.5 +18.6 70 +29 +29 душно 1008.5 998.8
00 21.08 В 3 19 км 8/3 600 м
[Sc Ac trans]
+26.8 +17.5 57 +31 +34 душно 1009.2 999.5 +24.4
03 21.08 9000 м мгла н/о +30.4 +19.7 53 +37 +38 очень
душно
1008.5 998.9
06 21.08 З 2 11 км 8/8 1000 м
[Sc Ci fib]
+30.2 +20.4 56 +37 +39 очень
душно
1007.3 997.7
09 21.08 С 3 8000 м слаб. дождь 10/9 1000 м
[Frnb As op]
+27.4 +22.1 73 +36 +36 очень
душно
1007.4 997.8
12 21.08 СВ 2 4300 м слаб. дождь 10/8 600 м
[Frnb As op]
+25.8 +23.0 85 +34 +34 очень
душно
1008.0 998.3 +30.4 0.9
15 21.08 штиль 0 4100 м дымка {дождь} 4/0
[Ci fib]
+25.1 +22.5 86 +33 +33 очень
душно
1008.0 998.3
18 21.08 штиль 0 4100 м дымка {дождь} 3/0
[Ci fib]
+23.8 +21.4 86 +30 +30 очень
душно
1006.9 997.2 0.4
21 21.08 штиль 0 4500 м дымка 9/0
[Ac trans]
+23.0 +20.5 86 +30 +30 очень
душно
1006.7 997.0
00 22.08 В 2 7000 м мгла 8/0
[Ac trans Ci sp]
+26.2 +19.5 67 +32 +37 очень
душно
1006.4 996.7 +23.0 0.4
03 22.08 СЗ 3 15 км 3/1 1000 м
[Sc Ci fib]
+29.8 +15.8 43 +33 +45 душно 1005.6 996.0
06 22.08 З 3 17 км 4/3 1500 м
[Sc Ci fib]
+31.3 +16.4 41 +34 +41 душно 1004.6 995.1
09 22.08 З 4 15 км 6/1 1000 м
[Sc Cc]
+28.7 +20.1 60 +35 +36 очень
душно
1005.2 995.7
12 22.08 З 3 9000 м дымка 8/1 1000 м
[Sc Ac trans]
+26.2 +21.6 76 +34 +34 очень
душно
1007.0 997.3 +31.4
15 22.08 З 2 17 км 9/0
[Ac trans]
+25.8 +20.3 72 +32 +32 очень
душно
1007.0 997.3
18 22.08 З 1 10 км 9/0
[Ac trans]
+25.1 +21.1 78 +32 +32 очень
душно
1006.9 997.2

 

Местоположение метеостанции Сеул (Корея): широта 37.57 долгота 126.96 высота над уровнем моря 86 м.

В архиве по умолчанию представлена погода в Сеуле за последнюю неделю. Архивные данные за месяц целиком и за предыдущие месяцы, начиная с января 2011 года, Вы можете получить, выбрав интересующий диапазон дат из раскрывающегося списка и нажав кнопку "Ввод!".


*Определитесь, кто Вы:
робот инопланетянин человек

Внимание! Время в таблицах - всемирное. Для получения местного времени необходимо прибавить поправку, которая равна 9 ч.

Смотрите также архив погоды в соседних городах и на ближайших метеорологических станциях:

Погода в Инчхоне (Корея) (31 км)
Погода в Сувоне (Корея) (33 км)
Погода в Тондучхоне (Корея) (38 км)
Погода в Мунсане (Корея) (39 км)
Погода в Кэсоне (КНДР) (57 км)
Погода в Ичхоне (Корея) (57 км)
Погода в Букчунчеоне (Корея) (60 км)
Погода на Базе Camp Humphreys (Корея) (69 км)
Погода в Чхорвоне (Корея) (71 км)
Погода в Чунчоне (Корея) (74 км)

Пояснения к столбцам:

Ветер - указаны скорость ветра в м/с - средняя за 10 мин, порывы в срок и между сроками (в фигурных скобках) и направление, откуда дует ветер: С - северный, СВ - северо-восточный, В - восточный, ЮВ - юго-восточный, Ю - южный, ЮЗ - юго-западный, З - западный, СЗ - северо-западный.
Видимость - горизонтальная дальность видимости в метрах или километрах. При видимости от 1 до 10 км при отсутствии осадков обычно наблюдается дымка, при ухудшении видимости до 1 км и менее - туман. В сухую погоду видимость может ухудшаться дымом, пылью или мглою.
Явления - указаны атмосферные явления, наблюдавшиеся в срок или в последний час перед сроком; фигурными скобками обозначены явления, наблюдавшиеся между сроками (за 1-3 часа до срока); квадратными скобками обозначены град или гололедные отложения с указанием их диаметра в мм.
Облачность - указаны через наклонную черту общая и нижняя облачность в баллах и высота нижней границы облаков в метрах; квадратными скобками обозначены формы облаков: Ci - перистые, Cs - перисто-слоистые, Cc - перисто-кучевые, Ac - высококучевые, As - высокослоистые, Sc - слоисто-кучевые, Ns - слоисто-дождевые, Cu - кучевые, Cb - кучево-дождевые. Подробнее классификацию облаков см. в Атласе облаков (PDF).
T - Температура воздуха - температура, измеренная на высоте 2 м над землей.
Td - Температура точки росы - температура, при понижении до которой содержащийся в воздухе водяной пар достигнет насыщения.
f - Относительная влажность воздуха - влажноcть воздуха, измеренная на высоте 2 м над землей.
Te - Эффективная температура - температура, которую ощущает одетый по сезону человек в тени. Характеристика душности погоды. При расчете учитывается влияние влажности воздуха и скорости ветра на теплоощущения человека.
Tes - Эффективная температура на солнце - температура, которую ощущает человек, с поправкой на солнечный нагрев. Характеристика знойности погоды. Зависит от высоты солнца над горизонтом, облачности и скорости ветра. Ночью, в пасмурную погоду, а также при ветре 12 м/с и более поправка равна нулю.
P - Атмосферное давление - приведенное к уровню моря атмосферное давление.
Po - Атмосферное давление - измеренное на уровне метеостанции атмосферное давление.
Tmin - Минимальная температура - минимум температуры воздуха на высоте 2 м над землей.
Tmax - Максимальная температура - максимум температуры воздуха на высоте 2 м над землей.
R - Количество осадков - Количество выпавших осадков за период времени, мм. При наведении курсора мыши на число - период времени, за который выпало указанное количество осадков.
R24 - Количество осадков - Количество выпавших осадков за 24 часа, мм.
S - Снежный покров - Высота снежного покрова, см. При наведении курсора мыши на число - состояние снежного покрова и степень покрытия местности в баллах.